Regional Weather Roundup
Issued by NWS Glasgow, MT

Home | Current Version | Previous Version | Text Only | Print | Product List | Glossary On
Versions: 1 2 3 4 5 6 7 8 9 10 11 12 13 14 15 16 17 18 19 20 21 22 23 24 25 26 27 28 29 30 31 32 33 34 35 36 37 38 39 40 41 42 43 44 45 46 47 48 49 50
000
ASUS45 KGGW 300715
RWRGGW
HOURLY WEATHER ROUNDUP FOR NORTHEAST MONTANA
NATIONAL WEATHER SERVICE GLASGOW MONTANA
100 AM MDT WED JUL 30 2014

NOTE: "FAIR" INDICATES FEW OR NO CLOUDS BELOW 12,000 FEET WITH NO
SIGNIFICANT WEATHER AND/OR OBSTRUCTIONS TO VISISBILITY.

NORTHEAST MONTANA


CITY           SKY/WX    TMP DP  RH WIND       PRES   REMARKS
GLASGOW        CLEAR     63  50  62 E12       30.17S
PLENTYWOOD       N/A     60  50  69 E6          N/A
WOLF POINT     CLEAR     61  52  72 E5        30.18S
JORDAN           N/A     62  43  49 NE5       30.19R
WINNETT          N/A     64  40  41 W3          N/A
SIDNEY         CLEAR     61  54  77 NW5       30.19S
GLENDIVE       CLEAR     64  48  55 N5        30.20S
MALTA            N/A    N/A N/A N/A N2          N/A
SCOBEY           N/A     58  52  80 CALM      30.18S

FORT PECK REPORTS


CITY           SKY/WX    TMP DP  RH WIND       PRES   REMARKS
FORT PECK        N/A     68  50  52 E8          N/A
THE PINES        N/A     71  52  50 E3          N/A

SOUTHEAST MONTANA


CITY           SKY/WX    TMP DP  RH WIND       PRES   REMARKS
BILLINGS       PTCLDY    71  54  54 W14       30.22R
MILES CITY     CLEAR     65  46  50 NE6       30.18R
BAKER          CLEAR     61  51  70 S3        30.20R
LIVINGSTON     PTCLDY    64  49  57 CALM      30.24S

CENTRAL MONTANA


CITY           SKY/WX    TMP DP  RH WIND       PRES   REMARKS
HAVRE          CLEAR     75  43  31 E10       30.12S
LEWISTOWN      CLEAR     67  41  38 E9        30.23S
GREAT FALLS    CLEAR     66  44  45 CALM      30.15S
CUT BANK       CLEAR     58  47  66 CALM      30.17S
HELENA         PTCLDY    69  46  43 CALM      30.19R
BUTTE          PTCLDY    60  44  55 S6        30.30R
BOZEMAN        PTCLDY    64  46  52 SW5       30.22S

WESTERN MONTANA


CITY           SKY/WX    TMP DP  RH WIND       PRES   REMARKS
MISSOULA       PTCLDY    68  41  37 CALM      30.12R
KALISPELL      NOT AVBL

NORTH DAKOTA


CITY           SKY/WX    TMP DP  RH WIND       PRES   REMARKS
WILLISTON      CLEAR     61  57  87 N5        30.18S
DICKINSON      CLEAR     57  55  93 NE3       30.17S
MINOT          CLEAR     62  59  90 SW6       30.16R
BISMARCK       CLEAR     61  31  32 CALM      30.17S

SOUTHERN SASKATCHEWAN


CITY           SKY/WX    TMP DP  RH WIND       PRES   REMARKS
REGINA         CLEAR     59  55  88 SE6       30.19S
ESTEVAN        PTCLDY    54  52  94 N5        30.19R
SWIFT CURRENT  CLEAR     59  55  88 S12       30.17S




USA.gov is the U.S. government's official web portal to all federal, state and local government web resources and services.